User: anonymous   Login
Location: Carri�res
(48.9069°N, 2.1792°E)
Time: 20:29:55
(UTC+00:00)
Language:

SJ-11-01 - Orbit

View from above orbital plane
View from above orbital plane
View from above satellite
View from above satellite

Ground track
Ground track

The orbit data is extracted from the following two-line orbital elements,

1 36088U 09061A   21112.46446043  .00000019  00000-0  13241-4 0  9994
2 36088  97.9598 139.8329 0011455 178.9879 181.1353 14.60212126609703
Epoch (UTC): 22 April 2021 11:08:49
Eccentricity: 0.0011455
inclination: 97.9598°
perigee height: 684 km
apogee height: 700 km
right ascension of ascending node: 139.8329°
argument of perigee: 178.9879°
revolutions per day: 14.60212126
mean anomaly at epoch: 181.1353°
orbit number at epoch: 60970

The dashed part of the orbit path shows where the satellite is in the earth's shadow,  

DLR